Location: Decatur Area Astronomy Club
(40.0275°N, 88.7810°W)
Time: 13:50:00
(UTC-05:00)

Amateur Radio Satellites - All Passes

Search period start: 02 September 2014 13:20
Search period end: 03 September 2014 13:20
Location: Decatur Area Astronomy Club, 40.0275°N, 88.7810°W

Satellite Date Start Highest point End Downlink Frequencies (MHz)
Time Altitude Azimuth
MaSat-1 02 Sep 13:31:08 13:35:50 42° 301° (WNW) 13:40:44 437.345 MHz
Oscar 16 02 Sep 13:31:20 13:36:29 75° 74° (ENE) 13:41:40 437.025 USB, Beacon 2401.1428
ITAMSAT 1 02 Sep 13:35:33 13:40:10 35° 68° (ENE) 13:44:48 435.822 SSB
ISS 02 Sep 13:39:25 13:40:48 12° 7° (N) 13:42:10 145.800 FM
Uribyol 2 02 Sep 13:44:27 13:49:19 44° 70° (ENE) 13:54:12 436.500 FM
AO-7 02 Sep 13:48:18 13:49:23 10° 42° (NE) 13:50:29 29.400 - 29.500 MHz
PANSAT 02 Sep 13:48:31 13:50:02 12° 191° (S) 13:51:33 not established
TMSAT-1 02 Sep 14:01:00 14:04:48 21° 64° (ENE) 14:08:37 436.925 FM
AO-27 02 Sep 14:04:47 14:09:54 67° 73° (ENE) 14:15:03 436.795 MHz FM
UOSAT-12 02 Sep 14:17:50 14:22:31 65° 241° (WSW) 14:27:07 437.025 FM, 437.400 FM
Oscar 19 02 Sep 14:36:06 14:40:31 28° 264° (W) 14:44:59 437.125 CW, 437.150 USB
AO-Echo 02 Sep 14:39:29 14:44:22 52° 260° (W) 14:49:08 ?
Gurwin Techsat 1B 02 Sep 14:49:23 14:54:40 77° 75° (ENE) 14:59:59 435.225 FM
JAS-1B 02 Sep 15:03:29 15:13:02 57° 260° (W) 15:21:37 435.800 - 435.900 CW/SSB
Oscar 16 02 Sep 15:14:17 15:16:22 12° 270° (W) 15:18:27 437.025 USB, Beacon 2401.1428
ITAMSAT 1 02 Sep 15:15:18 15:19:40 28° 264° (W) 15:24:04 435.822 SSB
ISS 02 Sep 15:15:27 15:18:23 28° 27° (NNE) 15:21:19 145.800 FM
RS-15 02 Sep 15:24:01 15:34:29 45° 45° (NE) 15:45:16 29.354 - 29.394 USB, Beacon 29.352 USB
Uribyol 2 02 Sep 15:25:06 15:28:58 21° 266° (W) 15:32:52 436.500 FM
AO-7 02 Sep 15:32:17 15:40:08 49° 64° (ENE) 15:48:00 29.400 - 29.500 MHz
Uosat F 02 Sep 15:33:13 15:37:25 28° 67° (ENE) 15:41:37 435.120 FM
TMSAT-1 02 Sep 15:39:12 15:44:19 51° 260° (W) 15:49:29 436.925 FM
AO-27 02 Sep 15:47:13 15:49:52 14° 269° (W) 15:52:32 436.795 MHz FM
Sapphire 02 Sep 15:48:20 15:53:02 31° 109° (ESE) 15:57:46 437.095 MHz 1200 baud AX-25 AFSK
PCSat 02 Sep 16:16:43 16:22:01 61° 114° (ESE) 16:27:22 145.825 MHz
Gurwin Techsat 1B 02 Sep 16:33:03 16:35:11 12° 271° (W) 16:37:20 435.225 FM
ISS 02 Sep 16:52:03 16:55:11 38° 224° (SW) 16:58:17 145.800 FM
OPAL 02 Sep 17:05:43 17:10:39 41° 100° (E) 17:15:32 ?
Uosat F 02 Sep 17:11:35 17:16:04 33° 263° (W) 17:20:35 435.120 FM
AO-7 02 Sep 17:25:26 17:33:00 38° 262° (W) 17:40:37 29.400 - 29.500 MHz
JAS-2 02 Sep 17:25:59 17:31:30 39° 70° (ENE) 17:36:31 435.800 - 435.900 CW/SSB, 435.910 FM
Sapphire 02 Sep 17:31:23 17:36:21 36° 307° (NW) 17:41:21 437.095 MHz 1200 baud AX-25 AFSK
RS-15 02 Sep 17:36:26 17:47:11 58° 247° (WSW) 17:58:24 29.354 - 29.394 USB, Beacon 29.352 USB
Hamsat 02 Sep 17:51:42 17:55:58 63° 75° (ENE) 18:00:18 145.90 MHz
PCSat 02 Sep 18:01:46 18:05:51 21° 313° (NW) 18:09:59 145.825 MHz
SO-67 02 Sep 18:13:04 18:14:19 12° 66° (ENE) 18:15:33 435.3500 MHz FM
OPAL 02 Sep 18:45:05 18:49:17 25° 297° (WNW) 18:53:27 ?
STRAND 1 02 Sep 18:55:02 18:59:10 24° 95° (E) 19:03:17 ?
JAS-2 02 Sep 19:11:37 19:16:39 27° 264° (W) 19:21:18 435.800 - 435.900 CW/SSB, 435.910 FM
Hamsat 02 Sep 19:31:14 19:32:20 11° 271° (W) 19:33:27 145.90 MHz
HO-68 02 Sep 19:33:30 19:38:33 21° 57° (ENE) 19:43:37 435.675 MHz FM
SO-67 02 Sep 19:43:43 19:46:59 38° 262° (W) 19:50:16 435.3500 MHz FM
STRAND 1 02 Sep 20:33:44 20:38:26 38° 291° (WNW) 20:43:07 ?
HO-68 02 Sep 21:18:22 21:25:30 77° 255° (WSW) 21:32:41 435.675 MHz FM
UKube-1 02 Sep 21:28:39 21:32:58 77° 75° (ENE) 21:37:19 145.840 MHz, 145.915 MHz
Oscar 11 02 Sep 21:31:26 21:35:36 49° 73° (ENE) 21:39:49 145.825 FM, Beacon 2401.500 USB
MaSat-1 02 Sep 21:49:28 21:53:42 38° 58° (ENE) 21:57:23 437.345 MHz
Saudisat 1A 02 Sep 21:55:00 21:59:21 67° 119° (ESE) 22:03:45 436.775 MHz
FUNcube-1 02 Sep 22:06:23 22:10:23 44° 72° (ENE) 22:14:28 145.950 - 145.970 MHz USB
KITSAT 1 02 Sep 22:41:06 22:48:54 54° 112° (ESE) 22:56:42 435.175 FM
Oscar 11 02 Sep 23:09:47 23:12:04 14° 269° (W) 23:14:22 145.825 FM, Beacon 2401.500 USB
HO-68 02 Sep 23:12:03 23:14:15 12° 272° (W) 23:16:28 435.675 MHz FM
MaSat-1 02 Sep 23:27:27 23:30:12 17° 259° (W) 23:32:44 437.345 MHz
Saudisat 1A 02 Sep 23:36:35 23:39:23 16° 318° (NW) 23:42:11 436.775 MHz
FUNcube-1 02 Sep 23:44:43 23:47:02 14° 269° (W) 23:49:24 145.950 - 145.970 MHz USB
Sapphire 03 Sep 00:36:41 00:41:07 25° 49° (NE) 00:45:31 437.095 MHz 1200 baud AX-25 AFSK
KITSAT 1 03 Sep 00:37:12 00:44:34 37° 313° (NW) 00:51:58 435.175 FM
PCSat 03 Sep 01:05:22 01:10:32 43° 55° (NE) 01:15:40 145.825 MHz
Oscar 19 03 Sep 01:10:49 01:12:45 12° 89° (E) 01:14:40 437.125 CW, 437.150 USB
Oscar 10/S400 03 Sep 01:28:50 02:28:52 51° 214° (SSW) 09:24:50 145.825 - 145.975 CW/USB, Beacon 145.810 USB
Oscar 16 03 Sep 01:44:16 01:48:41 28° 95° (E) 01:53:05 437.025 USB, Beacon 2401.1428
ITAMSAT 1 03 Sep 01:50:52 01:52:58 12° 90° (E) 01:55:04 435.822 SSB
Uribyol 2 03 Sep 01:58:57 02:02:12 17° 92° (E) 02:05:26 436.500 FM
AO-27 03 Sep 02:19:06 02:23:20 25° 95° (E) 02:27:32 436.795 MHz FM
Sapphire 03 Sep 02:19:33 02:24:48 51° 247° (WSW) 02:30:01 437.095 MHz 1200 baud AX-25 AFSK
KITSAT 1 03 Sep 02:39:41 02:42:47 12° 339° (NNW) 02:45:53 435.175 FM
AO-Echo 03 Sep 02:47:11 02:51:46 50° 100° (E) 02:56:23 ?
Oscar 19 03 Sep 02:47:26 02:52:38 77° 285° (WNW) 02:57:48 437.125 CW, 437.150 USB
SO-50 03 Sep 02:48:33 02:52:53 54° 118° (ESE) 02:57:20 436.795 FM
PCSat 03 Sep 02:49:16 02:53:42 26° 252° (WSW) 02:58:07 145.825 MHz
JAS-1B 03 Sep 02:51:57 02:58:09 46° 98° (E) 03:03:39 435.800 - 435.900 CW/SSB
Gurwin Techsat 1B 03 Sep 03:06:39 03:11:24 32° 96° (E) 03:16:06 435.225 FM
Oscar 16 03 Sep 03:23:22 03:28:03 35° 292° (WNW) 03:32:42 437.025 USB, Beacon 2401.1428
ITAMSAT 1 03 Sep 03:27:48 03:32:59 75° 286° (WNW) 03:38:10 435.822 SSB
Uribyol 2 03 Sep 03:36:55 03:42:01 58° 288° (WNW) 03:47:06 436.500 FM
AO-7 03 Sep 03:37:12 03:40:57 14° 89° (E) 03:44:40 29.400 - 29.500 MHz
TMSAT-1 03 Sep 03:55:29 04:00:47 68° 102° (ESE) 04:06:02 436.925 FM
AO-27 03 Sep 03:58:08 04:02:55 38° 291° (WNW) 04:07:41 436.795 MHz FM
OPAL 03 Sep 04:19:55 04:24:57 68° 71° (ENE) 04:30:05 ?
AO-Echo 03 Sep 04:27:12 04:30:09 17° 296° (WNW) 04:33:07 ?
UOSAT-12 03 Sep 04:28:17 04:32:39 44° 116° (ESE) 04:37:06 437.025 FM, 437.400 FM
SO-50 03 Sep 04:30:28 04:33:46 20° 316° (NW) 04:37:08 436.795 FM
JAS-1B 03 Sep 04:43:13 04:48:25 26° 300° (WNW) 04:53:09 435.800 - 435.900 CW/SSB
Gurwin Techsat 1B 03 Sep 04:46:39 04:51:17 31° 293° (WNW) 04:55:53 435.225 FM
Uosat F 03 Sep 05:19:14 05:24:16 79° 103° (ESE) 05:29:16 435.120 FM
AO-7 03 Sep 05:26:37 05:34:56 78° 106° (ESE) 05:43:13 29.400 - 29.500 MHz
TMSAT-1 03 Sep 05:37:01 05:40:06 16° 299° (WNW) 05:43:12 436.925 FM
Hamsat 03 Sep 05:40:19 05:41:58 12° 90° (E) 05:43:37 145.90 MHz
RS-15 03 Sep 05:49:49 05:58:04 25° 102° (ESE) 06:06:09 29.354 - 29.394 USB, Beacon 29.352 USB
OPAL 03 Sep 06:01:48 06:04:18 14° 268° (W) 06:06:50 ?
UOSAT-12 03 Sep 06:09:13 06:12:59 24° 314° (NW) 06:16:49 437.025 FM, 437.400 FM
STRAND 1 03 Sep 06:10:19 06:14:51 34° 68° (ENE) 06:19:24 ?
JAS-2 03 Sep 06:19:22 06:24:16 35° 98° (E) 06:29:32 435.800 - 435.900 CW/SSB, 435.910 FM
Saudisat 1A 03 Sep 06:22:25 06:26:39 43° 53° (NE) 06:30:51 436.775 MHz
KITSAT 1 03 Sep 06:35:11 06:41:48 27° 41° (NE) 06:48:21 435.175 FM
Uosat F 03 Sep 07:00:15 07:02:22 13° 300° (WNW) 07:04:29 435.120 FM
SO-67 03 Sep 07:09:09 07:11:01 14° 93° (E) 07:12:54 435.3500 MHz FM
Hamsat 03 Sep 07:14:02 07:18:17 57° 286° (WNW) 07:22:29 145.90 MHz
AO-7 03 Sep 07:20:37 07:26:53 25° 305° (NW) 07:33:08 29.400 - 29.500 MHz
STRAND 1 03 Sep 07:49:44 07:54:02 28° 264° (W) 07:58:23 ?
RS-15 03 Sep 07:57:58 08:09:05 82° 302° (WNW) 08:20:05 29.354 - 29.394 USB, Beacon 29.352 USB
ISS 03 Sep 08:00:34 08:00:45 10° 128° (SE) 08:00:55 145.800 FM
Saudisat 1A 03 Sep 08:02:48 08:05:54 19° 249° (WSW) 08:09:00 436.775 MHz
JAS-2 03 Sep 08:04:45 08:09:17 29° 292° (WNW) 08:14:09 435.800 - 435.900 CW/SSB, 435.910 FM
KITSAT 1 03 Sep 08:30:01 08:38:07 82° 242° (WSW) 08:46:10 435.175 FM
SO-67 03 Sep 08:41:05 08:44:09 29° 288° (WNW) 08:47:11 435.3500 MHz FM
HO-68 03 Sep 08:48:00 08:53:11 21° 92° (E) 08:58:20 435.675 MHz FM
UKube-1 03 Sep 09:19:18 09:21:26 13° 92° (E) 09:23:35 145.840 MHz, 145.915 MHz
ISS 03 Sep 09:33:40 09:37:00 84° 325° (NW) 09:40:20 145.800 FM
RS-15 03 Sep 10:14:20 10:23:20 28° 329° (NNW) 10:32:24 29.354 - 29.394 USB, Beacon 29.352 USB
KITSAT 1 03 Sep 10:28:07 10:32:15 15° 260° (W) 10:36:23 435.175 FM
HO-68 03 Sep 10:34:19 10:41:26 70° 289° (WNW) 10:48:31 435.675 MHz FM
UKube-1 03 Sep 10:53:43 10:57:56 51° 287° (WNW) 11:02:08 145.840 MHz, 145.915 MHz
Oscar 11 03 Sep 10:55:36 10:59:59 73° 284° (WNW) 11:04:19 145.825 FM, Beacon 2401.500 USB
ISS 03 Sep 11:11:48 11:14:08 18° 341° (NNW) 11:16:29 145.800 FM
SO-50 03 Sep 11:20:37 11:25:11 43° 52° (NE) 11:29:48 436.795 FM
FUNcube-1 03 Sep 11:31:53 11:36:27 76° 284° (WNW) 11:41:03 145.950 - 145.970 MHz USB
MaSat-1 03 Sep 11:36:38 11:40:22 22° 103° (ESE) 11:44:15 437.345 MHz
PANSAT 03 Sep 11:43:15 11:45:28 15° 178° (S) 11:47:40 not established
JAS-1B 03 Sep 11:52:37 11:53:02 10° 49° (NE) 11:53:27 435.800 - 435.900 CW/SSB
HO-68 03 Sep 12:24:44 12:27:51 13° 308° (NW) 12:30:59 435.675 MHz FM
Oscar 19 03 Sep 12:26:32 12:29:57 18° 63° (ENE) 12:33:23 437.125 CW, 437.150 USB
RS-15 03 Sep 12:33:57 12:41:00 18° 5° (N) 12:48:09 29.354 - 29.394 USB, Beacon 29.352 USB
ISS 03 Sep 12:50:48 12:51:55 11° 2° (N) 12:53:03 145.800 FM
UOSAT-12 03 Sep 12:58:30 13:02:50 34° 50° (NE) 13:07:05 437.025 FM, 437.400 FM
Oscar 16 03 Sep 13:00:31 13:05:15 38° 69° (ENE) 13:10:01 437.025 USB, Beacon 2401.1428
SO-50 03 Sep 13:01:44 13:05:31 23° 248° (WSW) 13:09:19 436.795 FM
ITAMSAT 1 03 Sep 13:07:46 13:11:22 20° 63° (ENE) 13:14:58 435.822 SSB
